Flag for Canada Weather past 2 weeks in Trois-Rivieres, Quebec, Canada

Now
31 °F

Chilly.


Feels Like: 26 °F
Forecast: 24 / 45 °F
Wind: 5 mph from West

Location: Trois Rivieres


UV Index: 3 (Moderate)

Visibility: N/A


Pressure: 30.57 "Hg

Humidity: 48%

Dew point: 13 °F

Location of Trois-RivieresLocation

Historic Weather in Trois-Rivieres

°F

Trois-Rivieres temperature yesterday

Maximum temperature yesterday: 56 °F (at 12:00 PM)
Minimum temperature yesterday: 25 °F (at 11:00 PM)
Average temperature yesterday: 45 °F

Past Weeks' High & Low Weather Summary

 TemperatureHumidityPressure
High56 °F (Apr 15, 12:00 PM)100% (Apr 5, 12:00 AM)30.52 "Hg (Apr 5, 12:00 AM)
Low17 °F (Apr 16, 8:00 AM)30% (Apr 9, 3:00 PM)29.21 "Hg (Apr 8, 4:00 PM)
Average37 °F73%29.90 "Hg
* Reported Apr 1 8:00 PM — Apr 16 8:00 PM, Trois-Rivieres, Weather by CustomWeather, © 2014

Note: Actual official high and low records may vary slightly from our data, if they occured in-between our weather recording intervals... More about our weather records

Advertising

Historic Weather Conditions — Data for Previous 24 hours

 ConditionsComfort  
Time TempWeatherWind HumidityBarometerVisibility
8:00 PM
Apr 16
31 °FChilly.5 mph46%30.52 "HgN/A
7:00 PM32 °FChilly.6 mph50%30.50 "HgN/A
6:00 PM32 °FChilly.7 mph57%30.47 "HgN/A
5:00 PM30 °FChilly.10 mph52%30.46 "HgN/A
4:00 PM29 °FChilly.14 mph59%30.45 "HgN/A
3:00 PM28 °FChilly.8 mph51%30.43 "HgN/A
2:00 PM26 °FChilly.12 mph55%30.42 "HgN/A
1:00 PM24 °FCold.10 mph57%30.41 "HgN/A
12:00 PM22 °FCold.12 mph63%30.39 "HgN/A
11:00 AM21 °FCold.12 mph63%30.37 "HgN/A
10:00 AM20 °FCold.10 mph65%30.34 "HgN/A
9:00 AM18 °FCold.9 mph69%30.29 "HgN/A
8:00 AM17 °FCold.9 mph76%30.23 "HgN/A
7:00 AM18 °FCold.8 mph72%30.19 "HgN/A
6:00 AM17 °FCold.10 mph81%30.12 "HgN/A
5:00 AM19 °FCold.10 mph79%30.05 "HgN/A
4:00 AM20 °FCold.7 mph82%30.03 "HgN/A
3:00 AM22 °FCold.10 mph83%29.98 "HgN/A
2:00 AM23 °FCold.10 mph87%29.93 "HgN/A
1:00 AM22 °FCold.10 mph94%29.87 "HgN/A
12:00 AM24 °FCold.9 mph95%29.85 "HgN/A
11:00 PM
Apr 15
25 °FChilly.9 mph96%29.83 "HgN/A
10:00 PM28 °FChilly.14 mph97%29.77 "HgN/A
9:00 PM31 °FChilly.8 mph97%29.73 "HgN/A
Weather by CustomWeather, © 2014

See weather overview